Home > Time Zones > World Clock > Weather > Belgium > Spa > Past weeks

Flag for Belgium Weather past 2 weeks in Spa, Belgium

Now
30 °F

Ice fog.


Feels Like: 26 °F
Forecast: 30 / 34 °F
Wind: 5 mph from Northwest

Location: Spa / La Sauveniere

Current Time: Feb 1, 2015 at 11:29:36 AM

Latest Report: Feb 1, 2015 at 10:00 AM


Visibility: 0 mi

Pressure: 29.26 "Hg

Humidity: 97%

Dew point: 30 °F

Location of SpaLocation

Historic Weather in Spa — Graph

°F

Spa temperature yesterday

Maximum temperature yesterday: 33 °F (at 1:00 PM)
Minimum temperature yesterday: 29 °F (at 12:00 AM)
Average temperature yesterday: 31 °F

Past Weeks' High & Low Weather Summary

 TemperatureHumidityPressure
High39 °F (Jan 28, 6:00 PM)100% (Jan 23, 12:00 AM)30.48 "Hg (Jan 23, 12:00 AM)
Low23 °F (Jan 21, 12:00 AM)68% (Jan 20, 3:00 PM)28.73 "Hg (Jan 30, 12:00 AM)
Average31 °F92%29.88 "Hg
* Reported Jan 17 10:00 AM — Feb 1 10:00 AM, Spa, Weather by CustomWeather, © 2014

Note: Actual official high and low records may vary slightly from our data, if they occured in-between our weather recording intervals... More about our weather records

Advertising

Spa weather history for previous 24 hours

 ConditionsComfort  
Time TempWeatherWind HumidityBarometerVisibility
10:00 AM
Feb 1
30 °FIce fog.5 mph97%29.26 "Hg0 mi
9:00 AM30 °FLight snow. Low clouds.3 mph96%29.23 "Hg1 mi
8:00 AM30 °FLight snow. Low clouds.3 mph96%29.21 "Hg1 mi
7:00 AM30 °FLight snow. Low clouds.2 mph95%29.21 "Hg1 mi
6:00 AM29 °FLow clouds.3 mph94%29.18 "HgN/A
5:00 AM29 °FLow clouds.2 mph94%29.18 "HgN/A
4:00 AM29 °FLow clouds.2 mph93%29.18 "HgN/A
3:00 AM29 °FFog.3 mph96%29.18 "Hg2 mi
2:00 AM29 °FLow clouds.2 mph95%29.18 "Hg9 mi
1:00 AM29 °FLow clouds.1 mph94%29.18 "Hg7 mi
12:00 AM29 °FOvercast.No wind96%29.15 "HgN/A
11:00 PM
Jan 31
30 °FOvercast.1 mph94%29.15 "Hg7 mi
10:00 PM30 °FOvercast.3 mph92%29.15 "Hg9 mi
9:00 PM30 °FOvercast.3 mph94%29.12 "Hg9 mi
8:00 PM31 °FOvercast.3 mph91%29.12 "Hg10 mi
7:00 PM31 °FOvercast.2 mph91%29.09 "Hg10 mi
6:00 PM30 °FPassing clouds.1 mph93%29.09 "Hg10 mi
5:00 PM31 °FScattered clouds.2 mph91%29.06 "Hg16 mi
4:00 PM32 °FPartly sunny.2 mph90%29.06 "Hg11 mi
3:00 PM32 °FPassing clouds.3 mph89%29.06 "Hg10 mi
2:00 PM33 °FScattered clouds.3 mph85%29.03 "Hg10 mi
1:00 PM33 °FPassing clouds.3 mph85%29.03 "Hg9 mi
12:00 PM31 °FLight rain. Low clouds.3 mph92%29.03 "Hg6 mi
11:00 AM31 °FFog.5 mph92%29.03 "Hg6 mi
Weather by CustomWeather, © 2014

See weather overviewHow to use our weather pages